星链-33897 (STARLINK-33897)

导读

STARLINK-33897是美国SpaceX公司星链(Starlink)星座的第二代卫星,于2025年5月10日发射入轨,属于星链Gen2星座部署批次。作为低轨互联网通信卫星,它配备激光星间链路与增强型相控阵天线,可提供高速全球宽带接入,支持海事、航空、应急通信等场景,具备自主轨道机动与避碰能力,退役后会再入大气层完全销毁,是星链实现全球覆盖的重要组成部分。

基本信息
目录编号:
63865
目录名称:
STARLINK-33897
国际标识:
2025-094B
轨道中心:
EARTH
卫星名称:
星链-33897
卫星全名:
星链-33897 (STARLINK-33897)
卫星状态:
在轨 (已飞行400 天)
发射日期:
2025-05-10 UTC
国别 :
美国 (US)
星等 :
--
轨道信息
数据来源 国际轨道数据 AOE轨道数据
星历时间 2026-06-14T03:56:33+0800
8小时前
查看轨道信息
2026-06-11T12:00:00+0800
3天前
查看轨道信息
半长轴 6950.183km 6950.188km
偏心率 0.0002973 0.000355
轨道倾角 70.001° 69.999°
近地点辐角 266.201° 264.995°
升交点赤经 352.077° 358.794°
平近点角 93.880° 128.167°
近地点 569.979km 569.583km
远地点 574.113km 574.519km
周期 96.107分钟 96.107分钟
每日圈数 14.983335 14.983316
详细信息
固有亮度:
5
最大亮度:
2.5
卫星平台:
Starlink V1.0
覆盖范围:
全球
运营商:
太空探索技术公司
运营商所在国:
美国
制造商(研发单位):
太空探索技术公司
制造商所在国:
美国
使用方式:
暂无
卫星简介
Starlink 计划是 SpaceX 推出的全球卫星互联网项目,通过发射低轨道卫星,为全球尤其是偏远地区提供高速、低延迟的互联网服务。自 2019 年起,Starlink 已部署数千颗卫星,旨在缩小全球数字鸿沟,推动互联网普及。该项目还为军事、航空等行业提供通信支持,带来广泛经济效益。
2D轨道图
3D轨道图
轨道高度分析图
轨道倾角分析图
轨道综合分析图
查看轨道综合分析图